When you browse on this site, cookies collect data to enhance your experience and personalize the content and advertising you see.
Visit our Privacy Policy to learn more. By continuing to use the site, you agree to this use of cookies and data.
  • In Portugal
  • List of Countries
  • For 7 days
  • Water Temperature
  • Weather Map
  • Weather Widgets
  • user-avatar
    Login

    Hourly Weather Sinyavka

    Today, 18 September, Wednesday

    Time Temperature Precipitation Wind Pressure Humidity
    00:00 +7°C° 0.2 mm 4 mps 734 mmHg 90%
    01:00 +7°C° 0.2 mm 4 mps 734 mmHg 90%
    02:00 +6°C° 0 mm 4 mps 733 mmHg 91%
    03:00 +6°C° 1.4 mm 4 mps 733 mmHg 91%
    04:00 +6°C° 1.4 mm 5 mps 733 mmHg 90%
    05:00 +5°C° 1.4 mm 5 mps 733 mmHg 90%
    06:00 +5°C° 0.1 mm 5 mps 734 mmHg 89%
    07:00 +4°C° 0.1 mm 6 mps 734 mmHg 88%
    08:00 +4°C° 0.1 mm 6 mps 734 mmHg 87%
    09:00 +5°C° 0 mm 6 mps 735 mmHg 85%
    10:00 +6°C° 0 mm 5 mps 735 mmHg 82%
    11:00 +7°C° 0 mm 5 mps 736 mmHg 80%
    12:00 +7°C° 0.1 mm 6 mps 736 mmHg 78%
    13:00 +8°C° 0.1 mm 6 mps 737 mmHg 77%
    14:00 +8°C° 0.1 mm 7 mps 737 mmHg 76%
    15:00 +9°C° 0.1 mm 7 mps 738 mmHg 75%
    16:00 +9°C° 0.1 mm 6 mps 739 mmHg 74%
    17:00 +10°C° 0.1 mm 6 mps 739 mmHg 73%
    18:00 +9°C° 0 mm 5 mps 740 mmHg 77%
    19:00 +8°C° 0 mm 5 mps 740 mmHg 81%
    20:00 +7°C° 0 mm 5 mps 741 mmHg 85%
    21:00 +7°C° 0.1 mm 5 mps 741 mmHg 87%
    22:00 +7°C° 0.1 mm 5 mps 741 mmHg 89%
    23:00 +7°C° 0.1 mm 5 mps 742 mmHg 91%

    Tomorrow, 19 September, Thursday

    Time Temperature Precipitation Wind Pressure Humidity
    00:00 +6°C° 0 mm 5 mps 742 mmHg 92%
    01:00 +6°C° 0 mm 5 mps 742 mmHg 94%
    02:00 +6°C° 0 mm 5 mps 743 mmHg 95%
    03:00 +6°C° 0 mm 5 mps 743 mmHg 93%
    04:00 +6°C° 0 mm 5 mps 743 mmHg 91%
    05:00 +6°C° 0 mm 5 mps 743 mmHg 89%
    06:00 +6°C° 0 mm 5 mps 744 mmHg 89%
    07:00 +6°C° 0 mm 5 mps 744 mmHg 89%
    08:00 +6°C° 0 mm 5 mps 745 mmHg 88%
    09:00 +7°C° 0 mm 5 mps 745 mmHg 86%
    10:00 +7°C° 0 mm 4 mps 745 mmHg 85%
    11:00 +8°C° 0 mm 4 mps 746 mmHg 83%
    12:00 +8°C° 0 mm 4 mps 746 mmHg 78%
    13:00 +10°C° 0 mm 4 mps 746 mmHg 74%
    14:00 +11°C° 0 mm 4 mps 746 mmHg 69%
    15:00 +11°C° 0.1 mm 3 mps 746 mmHg 70%
    16:00 +11°C° 0.1 mm 3 mps 746 mmHg 70%
    17:00 +11°C° 0.1 mm 3 mps 746 mmHg 70%
    18:00 +10°C° 0.2 mm 3 mps 746 mmHg 76%
    19:00 +9°C° 0.2 mm 3 mps 746 mmHg 81%
    20:00 +8°C° 0.2 mm 3 mps 746 mmHg 86%
    21:00 +7°C° 0 mm 3 mps 746 mmHg 88%
    22:00 +7°C° 0 mm 3 mps 746 mmHg 89%
    23:00 +7°C° 0 mm 3 mps 746 mmHg 91%

    Day after tomorrow, 20 September, Friday

    Time Temperature Precipitation Wind Pressure Humidity
    00:00 +5°C° 0.1 mm 4 mps 746 mmHg 92%
    01:00 +5°C° 0.1 mm 4 mps 746 mmHg 93%
    02:00 +5°C° 0.1 mm 4 mps 746 mmHg 94%
    03:00 +5°C° 0 mm 5 mps 747 mmHg 94%
    04:00 +5°C° 0 mm 5 mps 747 mmHg 93%
    05:00 +5°C° 0 mm 5 mps 747 mmHg 92%
    06:00 +5°C° 0 mm 5 mps 747 mmHg 90%
    07:00 +5°C° 0 mm 5 mps 747 mmHg 87%
    08:00 +4°C° 0 mm 6 mps 748 mmHg 85%
    09:00 +5°C° 0.1 mm 6 mps 748 mmHg 78%
    10:00 +7°C° 0.1 mm 6 mps 748 mmHg 72%
    11:00 +8°C° 0.1 mm 6 mps 749 mmHg 65%
    12:00 +9°C° 0.2 mm 6 mps 749 mmHg 62%
    13:00 +9°C° 0.2 mm 6 mps 749 mmHg 58%
    14:00 +10°C° 0.2 mm 6 mps 748 mmHg 55%
    15:00 +9°C° 0.1 mm 6 mps 749 mmHg 58%
    16:00 +9°C° 0.1 mm 5 mps 749 mmHg 61%
    17:00 +8°C° 0.1 mm 4 mps 749 mmHg 63%
    18:00 +7°C° 0 mm 4 mps 749 mmHg 68%
    19:00 +7°C° 0 mm 3 mps 749 mmHg 73%
    20:00 +4°C° 0 mm 3 mps 750 mmHg 78%
    21:00 +5°C° 0 mm 2 mps 750 mmHg 79%
    22:00 +4°C° 0 mm 2 mps 750 mmHg 81%
    23:00 +4°C° 0 mm 2 mps 750 mmHg 83%

    21 September, Saturday

    Time Temperature Precipitation Wind Pressure Humidity
    00:00 +4°C° 0 mm 2 mps 750 mmHg 83%
    01:00 +3°C° 0 mm 2 mps 751 mmHg 84%
    02:00 +3°C° 0 mm 2 mps 751 mmHg 84%
    03:00 +3°C° 0 mm 2 mps 750 mmHg 84%
    04:00 +3°C° 0 mm 2 mps 750 mmHg 84%
    05:00 +3°C° 0 mm 2 mps 750 mmHg 83%
    06:00 +3°C° 0 mm 3 mps 750 mmHg 80%
    07:00 +5°C° 0 mm 3 mps 750 mmHg 77%
    08:00 +7°C° 0 mm 3 mps 750 mmHg 74%
    09:00 +7°C° 0 mm 3 mps 750 mmHg 75%
    10:00 +7°C° 0 mm 4 mps 750 mmHg 77%
    11:00 +7°C° 0 mm 5 mps 749 mmHg 78%
    12:00 +8°C° 0.2 mm 5 mps 749 mmHg 80%
    13:00 +9°C° 0.2 mm 5 mps 749 mmHg 82%
    14:00 +10°C° 0.2 mm 5 mps 748 mmHg 84%
    15:00 +12°C° 0 mm 5 mps 748 mmHg 82%
    16:00 +13°C° 0 mm 5 mps 748 mmHg 81%
    17:00 +14°C° 0 mm 5 mps 748 mmHg 80%
    18:00 +13°C° 0 mm 4 mps 748 mmHg 81%
    19:00 +13°C° 0 mm 4 mps 748 mmHg 83%
    20:00 +12°C° 0 mm 4 mps 748 mmHg 85%
    21:00 +12°C° 0 mm 4 mps 747 mmHg 88%
    22:00 +11°C° 0 mm 4 mps 747 mmHg 90%
    23:00 +10°C° 0 mm 4 mps 747 mmHg 93%

    22 September, Sunday

    Time Temperature Precipitation Wind Pressure Humidity
    00:00 +10°C° 0 mm 4 mps 747 mmHg 94%
    01:00 +10°C° 0 mm 4 mps 747 mmHg 94%
    02:00 +9°C° 0 mm 5 mps 747 mmHg 94%
    03:00 +9°C° 0 mm 5 mps 747 mmHg 94%
    04:00 +9°C° 0 mm 5 mps 747 mmHg 94%
    05:00 +9°C° 0 mm 5 mps 747 mmHg 93%
    06:00 +9°C° 0 mm 5 mps 747 mmHg 92%
    07:00 +10°C° 0 mm 5 mps 747 mmHg 90%
    08:00 +10°C° 0 mm 5 mps 747 mmHg 88%
    09:00 +12°C° 0 mm 4 mps 747 mmHg 83%
    10:00 +13°C° 0 mm 4 mps 747 mmHg 78%
    11:00 +14°C° 0 mm 3 mps 748 mmHg 73%
    12:00 +16°C° 0 mm 3 mps 747 mmHg 69%
    13:00 +17°C° 0 mm 3 mps 747 mmHg 65%
    14:00 +18°C° 0 mm 2 mps 747 mmHg 61%
    15:00 +18°C° 0 mm 2 mps 747 mmHg 65%
    16:00 +17°C° 0 mm 2 mps 747 mmHg 68%
    17:00 +18°C° 0 mm 1 mps 747 mmHg 71%
    18:00 +15°C° 0 mm 2 mps 747 mmHg 75%
    19:00 +14°C° 0 mm 2 mps 747 mmHg 79%
    20:00 +11°C° 0 mm 3 mps 747 mmHg 83%
    21:00 +11°C° 0 mm 3 mps 747 mmHg 75%
    22:00 +10°C° 0 mm 3 mps 747 mmHg 67%
    23:00 +10°C° 0 mm 4 mps 747 mmHg 59%

    23 September, Monday

    Time Temperature Precipitation Wind Pressure Humidity
    00:00 +10°C° 0 mm 4 mps 747 mmHg 57%
    01:00 +8°C° 0 mm 4 mps 747 mmHg 55%
    02:00 +8°C° 0 mm 4 mps 747 mmHg 53%
    03:00 +8°C° 0 mm 4 mps 747 mmHg 54%
    04:00 +7°C° 0 mm 4 mps 746 mmHg 56%
    05:00 +7°C° 0 mm 4 mps 746 mmHg 57%
    06:00 +7°C° 0 mm 4 mps 746 mmHg 58%
    07:00 +8°C° 0 mm 4 mps 746 mmHg 59%
    08:00 +8°C° 0 mm 4 mps 745 mmHg 60%
    09:00 +9°C° 0 mm 5 mps 745 mmHg 59%
    10:00 +10°C° 0 mm 5 mps 745 mmHg 58%
    11:00 +12°C° 0 mm 5 mps 745 mmHg 58%
    12:00 +13°C° 0 mm 5 mps 745 mmHg 58%
    13:00 +14°C° 0 mm 5 mps 744 mmHg 57%
    14:00 +14°C° 0 mm 5 mps 744 mmHg 57%
    15:00 +14°C° 0 mm 4 mps 744 mmHg 60%
    16:00 +13°C° 0 mm 4 mps 743 mmHg 62%
    17:00 +12°C° 0 mm 4 mps 743 mmHg 65%
    18:00 +11°C° 0 mm 4 mps 743 mmHg 67%
    19:00 +8°C° 0 mm 4 mps 743 mmHg 69%
    20:00 +7°C° 0 mm 4 mps 743 mmHg 71%
    21:00 +6°C° 0 mm 4 mps 743 mmHg 71%
    22:00 +6°C° 0 mm 4 mps 743 mmHg 70%
    23:00 +5°C° 0 mm 4 mps 743 mmHg 69%
    Show more